[[{"header":{"parameterUnit":"m.s-1","parameterCategory":1,"la1":30.2991,"la2":30.254,"lo1":-89.0895,"lo2":-89.0444,"dy":0.0017,"dx":0.0017,"nx":28,"ny":28,"refTime":"2025-08-19T21:00:00:Z","depth":0,"parameterNumber":2,"parameterNumberName":"U-component_of_WINDS"},"data":[0,0,0,0,0,0,0,0,0,0,0,0,0,0,0,0,0,0,0,0,0,0,0,0,0,0,0,0,0,0,0,0,0,0,0,0,0,0,0,0,0,0,0,0,0,0,0,0,0,0,0,0,0,0,0,0,0,0,1.1076,1.1077,0,1.1247,1.1249,1.1251,1.129,1.1289,1.1288,1.1287,1.1466,1.1472,1.1478,0,0,0,0,0,0,0,0,0,0,0,0,0,1.0786,1.0791,1.1075,1.1077,1.108,1.1246,1.1249,1.1251,1.129,1.1289,1.1287,1.1286,1.1464,1.1471,1.1478,0,0,0,0,0,0,0,0,0,0,0,0,0,1.093,1.0792,1.1075,1.1119,1.1125,1.1246,1.1249,1.1252,1.1291,1.1289,1.1287,1.1285,1.1462,1.147,1.1479,1.1569,0,0,1.1506,1.151,0,0,0,0,0,0,0,0,1.0921,1.094,1.1111,1.1116,1.1123,1.1245,1.1212,1.1358,1.1291,1.1228,1.1287,1.1284,1.1394,1.1408,1.1445,1.1578,1.1586,1.1507,1.1512,1.1516,1.1518,0,0,0,0,0,0,0,1.0911,1.0933,1.1143,1.1113,1.1121,1.1132,1.115,1.124,1.1319,1.1233,1.1236,1.1256,1.1397,1.1436,1.1449,1.1588,1.1507,1.1514,1.152,1.1523,1.1804,1.1806,0,0,0,0,0,0,1.0893,1.0925,1.1138,1.1148,1.1016,1.1138,1.1159,1.1208,1.1318,1.1333,1.1257,1.1257,1.1422,1.1439,1.1456,1.1568,1.1516,1.1524,1.1529,1.1802,1.1804,1.1806,0,0,0,0,0,0,1.0887,1.0912,1.1131,1.1037,1.1066,1.1145,1.12,1.1212,1.1251,1.1336,1.1351,1.1282,1.1421,1.1443,1.154,1.1575,1.1528,1.1536,1.1799,1.1802,1.1805,1.1794,0,0,0,0,0,0,1.0878,1.0909,1.0944,1.1038,1.1071,1.1212,1.1202,1.1217,1.1265,1.1267,1.1364,1.1378,1.1421,1.1527,1.1549,1.1586,1.1543,1.1796,1.18,1.1804,1.1792,1.1797,1.1801,0,0,0,0,0,1.0868,1.0935,1.0945,1.0971,1.1115,1.1214,1.1233,1.128,1.1268,1.1304,1.1359,1.1375,1.1568,1.1537,1.1562,1.1602,1.1794,1.1799,1.1804,1.179,1.1796,1.1801,0,0,0,0,0,0,1.0845,1.0948,1.0961,1.106,1.1127,1.122,1.1267,1.1285,1.1359,1.1357,1.1414,1.1436,1.1529,1.1576,1.1539,1.1695,1.1681,1.1691,1.1661,1.1668,1.1672,1.1659,1.155,0,0,0,0,0,1.085,1.0921,1.1008,1.1087,1.112,1.1187,1.1232,1.1262,1.1335,1.1365,1.1427,1.1498,1.1574,1.1624,1.1699,1.1799,1.1821,1.1839,1.1844,1.1847,1.1855,1.1911,1.192,1.1822,1.1822,1.1822,0,0,1.0865,1.093,1.0971,1.1084,1.114,1.1212,1.1211,1.1288,1.1342,1.1377,1.1472,1.152,1.1603,1.1701,1.1748,1.1743,1.1887,1.1853,1.1855,1.1862,1.1917,1.1926,1.1934,1.1826,1.1825,1.1824,0,0,1.0927,1.0983,1.1055,1.111,1.1194,1.1238,1.1255,1.1345,1.1378,1.1474,1.1501,1.1567,1.1698,1.1756,1.1802,1.1885,1.1903,1.1908,1.1932,1.1985,1.1993,1.2,1.2029,1.2039,1.1916,1.1916,1.1916,0,1.0934,1.1042,1.109,1.1165,1.1214,1.1246,1.132,1.1372,1.1477,1.151,1.1503,1.1667,1.1726,1.1838,1.1858,1.1895,1.1916,1.1897,1.1988,1.1995,1.2003,1.2031,1.2042,1.1916,1.1916,1.1916,1.1916,0,1.1047,1.1121,1.117,1.1268,1.1323,1.1396,1.1456,1.1506,1.1531,1.1576,1.1673,1.1744,1.1834,1.1863,1.189,1.1979,1.1973,1.1976,1.1963,1.2011,1.2039,1.2051,1.1916,1.1916,1.1916,1.1916,0,0,1.1099,1.1222,1.1239,1.1284,1.1379,1.1438,1.1513,1.16,1.1641,1.1712,1.1777,1.1886,1.1889,1.1942,1.1975,1.2022,1.2082,1.2019,1.2022,1.2028,1.2185,1.2182,1.2194,1.2095,1.2097,1.2099,1.2178,0,1.1173,1.1307,1.1352,1.1464,1.1533,1.1565,1.1631,1.1697,1.1741,1.1807,1.1856,1.1932,1.193,1.1962,1.201,1.2065,1.2115,1.206,1.2156,1.2159,1.2134,1.2209,1.2207,1.2278,1.219,1.2191,1.2193,0,1.1277,1.1347,1.1466,1.1551,1.1582,1.164,1.1722,1.1785,1.186,1.1889,1.1947,1.1976,1.2057,1.2038,1.215,1.2112,1.2154,1.2186,1.219,1.2201,1.2179,1.2222,1.2302,1.2313,1.221,1.2209,1.2208,0,1.1303,1.1428,1.1515,1.1552,1.1654,1.1694,1.1738,1.1811,1.186,1.1932,1.1965,1.2046,1.209,1.2153,1.2204,1.2185,1.2311,1.2297,1.2338,1.2336,1.2363,1.2361,1.2451,1.239,1.239,1.239,1.239,0,1.138,1.1451,1.1528,1.1581,1.1662,1.1713,1.1791,1.1838,1.1902,1.1966,1.1999,1.2058,1.2121,1.2189,1.2229,1.2316,1.2336,1.2362,1.2372,1.2359,1.2356,1.2387,1.2384,1.2393,1.2392,1.2392,1.2391,0,1.1423,1.1477,1.1574,1.1661,1.1685,1.174,1.1816,1.1869,1.1914,1.1994,1.2016,1.2087,1.2168,1.2224,1.2329,1.2356,1.245,1.2459,1.2424,1.2429,1.2466,1.2462,1.258,1.2598,1.2525,1.2526,1.2526,0,1.1469,1.1524,1.1617,1.1661,1.1705,1.1776,1.1825,1.1878,1.1928,1.2017,1.206,1.2143,1.2212,1.234,1.2402,1.2482,1.2493,1.2529,1.2506,1.2491,1.2494,1.249,1.2495,1.2533,1.2534,1.2534,1.2534,0,1.1544,1.1568,1.1637,1.1715,1.1773,1.1838,1.1903,1.1937,1.2001,1.2056,1.2138,1.2192,1.2298,1.238,1.2466,1.2513,1.2535,1.2541,1.2555,1.2542,1.2519,1.2532,1.2433,1.2538,1.2538,1.2538,1.2537,1.2537,1.159,1.164,1.1713,1.1789,1.1843,1.1903,1.1957,1.2007,1.2077,1.2166,1.2193,1.2279,1.2352,1.2469,1.2517,1.2586,1.2583,1.2603,1.2608,1.2612,1.2612,1.2508,1.2602,1.2602,1.2602,1.2602,1.2602,0,1.1666,1.1714,1.1784,1.1873,1.1932,1.1946,1.2019,1.2068,1.2142,1.2208,1.2275,1.237,1.2449,1.2516,1.2599,1.2641,1.2652,1.266,1.2658,1.2668,1.2609,1.2589,1.2649,1.2649,1.2649,1.2649,1.2649,1.2649,1.1713,1.1798,1.1831,1.1943,1.1991,1.2074,1.2114,1.217,1.2223,1.2326,1.2392,1.2434,1.2501,1.2588,1.2662,1.268,1.2709,1.2714,1.2734,1.2678,1.2672,1.2667,1.2648,1.272,1.272,1.2787,1.2788,1.2789]},{"header":{"parameterUnit":"m.s-1","parameterCategory":1,"la1":30.2991,"la2":30.254,"lo1":-89.0895,"lo2":-89.0444,"dy":0.0017,"dx":0.0017,"nx":28,"ny":28,"refTime":"2025-08-19T21:00:00:Z","depth":0,"parameterNumber":3,"parameterNumberName":"V-component_of_WINDS"},"data":[0,0,0,0,0,0,0,0,0,0,0,0,0,0,0,0,0,0,0,0,0,0,0,0,0,0,0,0,0,0,0,0,0,0,0,0,0,0,0,0,0,0,0,0,0,0,0,0,0,0,0,0,0,0,0,0,0,0,1.6347,1.6347,0,1.6312,1.6312,1.6311,1.6304,1.6305,1.6305,1.6305,1.6266,1.6265,1.6264,0,0,0,0,0,0,0,0,0,0,0,0,0,1.6404,1.6403,1.6347,1.6347,1.6346,1.6312,1.6312,1.6311,1.6304,1.6305,1.6305,1.6305,1.6267,1.6265,1.6264,0,0,0,0,0,0,0,0,0,0,0,0,0,1.6375,1.6402,1.6347,1.6339,1.6338,1.6312,1.6312,1.6311,1.6304,1.6305,1.6305,1.6305,1.6267,1.6265,1.6264,1.6243,0,0,1.6258,1.6257,0,0,0,0,0,0,0,0,1.6376,1.6373,1.634,1.6339,1.6338,1.6313,1.6317,1.6288,1.6304,1.6317,1.6305,1.6306,1.6281,1.6278,1.6271,1.6241,1.624,1.6257,1.6256,1.6255,1.6255,0,0,0,0,0,0,0,1.6378,1.6374,1.6333,1.634,1.6338,1.6335,1.6332,1.6312,1.6297,1.6316,1.6315,1.6311,1.6281,1.6273,1.627,1.6239,1.6257,1.6256,1.6255,1.6254,1.6188,1.6187,0,0,0,0,0,0,1.6382,1.6376,1.6334,1.6332,1.6359,1.6334,1.633,1.6321,1.6297,1.6294,1.6311,1.6311,1.6276,1.6272,1.6268,1.6241,1.6255,1.6254,1.6253,1.6188,1.6188,1.6187,0,0,0,0,0,0,1.6384,1.6379,1.6336,1.6354,1.6348,1.6333,1.6322,1.632,1.6312,1.6294,1.6291,1.6306,1.6276,1.6271,1.6249,1.624,1.6253,1.6251,1.6189,1.6188,1.6187,1.6187,0,0,0,0,0,0,1.6385,1.6379,1.6373,1.6354,1.6347,1.6318,1.6322,1.6319,1.6309,1.6308,1.6288,1.6285,1.6276,1.6252,1.6247,1.6237,1.6249,1.619,1.6189,1.6188,1.6188,1.6187,1.6185,0,0,0,0,0,1.6387,1.6374,1.6372,1.6367,1.6339,1.6318,1.6314,1.6305,1.6308,1.63,1.6288,1.6286,1.6242,1.625,1.6244,1.6234,1.619,1.6189,1.6188,1.6189,1.6187,1.6185,0,0,0,0,0,0,1.6392,1.6372,1.6369,1.635,1.6336,1.6317,1.6307,1.6304,1.6287,1.6288,1.6276,1.6271,1.6249,1.6239,1.6249,1.6211,1.6216,1.6213,1.6219,1.6217,1.6215,1.6218,1.6248,0,0,0,0,0,1.6391,1.6377,1.6359,1.6343,1.6336,1.6323,1.6314,1.6307,1.6292,1.6286,1.6272,1.6256,1.6238,1.6227,1.621,1.6187,1.6181,1.6176,1.6175,1.6174,1.6172,1.6156,1.6153,1.6183,1.6183,1.6183,0,0,1.6388,1.6375,1.6367,1.6344,1.6332,1.6316,1.6318,1.6302,1.6289,1.6283,1.6261,1.625,1.6231,1.6208,1.6197,1.6199,1.6162,1.6172,1.6171,1.617,1.6154,1.6151,1.6149,1.6182,1.6182,1.6182,0,0,1.6375,1.6364,1.6349,1.6337,1.6319,1.631,1.6306,1.6287,1.628,1.6258,1.6252,1.6236,1.6207,1.6193,1.6182,1.616,1.6156,1.6155,1.6147,1.6132,1.613,1.6127,1.6118,1.6115,1.6153,1.6153,1.6153,0,1.6373,1.635,1.6342,1.6325,1.6314,1.6308,1.6291,1.6279,1.6256,1.6248,1.6251,1.6212,1.6199,1.6171,1.6165,1.6157,1.6151,1.6157,1.6131,1.6129,1.6126,1.6117,1.6113,1.6153,1.6153,1.6153,1.6153,0,1.6348,1.6332,1.6322,1.63,1.6288,1.6271,1.6258,1.6247,1.6241,1.6231,1.6206,1.619,1.6169,1.6162,1.6156,1.6132,1.6133,1.6134,1.6138,1.6124,1.6114,1.6111,1.6153,1.6153,1.6153,1.6153,0,0,1.6338,1.631,1.6307,1.6296,1.6274,1.6261,1.6243,1.6222,1.6211,1.6195,1.6178,1.6152,1.6152,1.6139,1.6131,1.6118,1.6099,1.612,1.6119,1.6115,1.6068,1.6067,1.6064,1.6097,1.6096,1.6095,1.6069,0,1.6321,1.629,1.628,1.6254,1.6237,1.623,1.6213,1.6197,1.6187,1.617,1.6157,1.6138,1.614,1.6132,1.6119,1.6105,1.6089,1.6106,1.6078,1.6078,1.6083,1.6059,1.6059,1.6035,1.6066,1.6065,1.6065,0,1.6298,1.6281,1.6253,1.6231,1.6224,1.621,1.6189,1.6173,1.6154,1.6147,1.6132,1.6125,1.6103,1.6109,1.6077,1.6089,1.6077,1.6068,1.6066,1.6063,1.607,1.6053,1.6028,1.6023,1.6059,1.606,1.606,0,1.6291,1.6262,1.624,1.6231,1.6206,1.6196,1.6185,1.6166,1.6153,1.6134,1.6125,1.6104,1.6091,1.6074,1.606,1.6066,1.6029,1.6034,1.602,1.602,1.6012,1.6013,1.5983,1.6007,1.6007,1.6007,1.6007,0,1.6273,1.6256,1.6237,1.6223,1.6202,1.619,1.6169,1.6157,1.614,1.6123,1.6115,1.6098,1.6082,1.6062,1.6051,1.6025,1.602,1.6012,1.6009,1.6012,1.6013,1.6004,1.6004,1.6006,1.6006,1.6006,1.6006,0,1.6262,1.6249,1.6225,1.6203,1.6197,1.6182,1.6162,1.6147,1.6136,1.6113,1.6107,1.6088,1.6065,1.6049,1.602,1.6012,1.5983,1.5981,1.599,1.5988,1.5974,1.5975,1.5936,1.5929,1.5959,1.5959,1.5958,0,1.6251,1.6238,1.6213,1.6202,1.619,1.6171,1.6158,1.6144,1.6131,1.6106,1.6094,1.607,1.605,1.6012,1.5994,1.597,1.5967,1.5955,1.5963,1.5966,1.5964,1.5965,1.5962,1.5953,1.5953,1.5953,1.5953,0,1.6232,1.6226,1.6208,1.6186,1.6171,1.6153,1.6135,1.6126,1.6108,1.6093,1.6069,1.6053,1.6022,1.5997,1.5971,1.5957,1.5951,1.595,1.5945,1.5947,1.5952,1.5947,1.5984,1.5951,1.5951,1.5951,1.5951,1.5951,1.622,1.6207,1.6187,1.6166,1.6151,1.6134,1.6118,1.6104,1.6084,1.6058,1.6051,1.6025,1.6003,1.5967,1.5953,1.5931,1.5932,1.5925,1.5923,1.5922,1.592,1.5957,1.5926,1.5926,1.5926,1.5926,1.5926,0,1.62,1.6186,1.6167,1.6142,1.6124,1.6121,1.61,1.6085,1.6063,1.6043,1.6024,1.5994,1.5969,1.5949,1.5923,1.5909,1.5905,1.5902,1.5902,1.5899,1.5922,1.5928,1.5905,1.5905,1.5905,1.5905,1.5905,1.5905,1.6187,1.6163,1.6153,1.6121,1.6107,1.6082,1.607,1.6053,1.6037,1.6005,1.5984,1.5971,1.595,1.5922,1.5898,1.5892,1.5882,1.588,1.5873,1.5895,1.5897,1.59,1.5905,1.5878,1.5878,1.5851,1.5851,1.5851]}]]